Showing default

PAUSAT-1, 62653

Orbit data source: Space-Track

PAUSAT-1, 62653 is a Turkish payload satellite in SSO that was launched on Tue, 14 Jan 2025 UTC via an FALCON 9 launch vehicle from the Air Force Western Test Range (AFWTR). Payload-class satellites include a variety of spacecraft equipped with specific instruments for various scientific and technological missions. These include communications satellites like Starlink; space stations such as the ISS; scientific satellites like the Hubble; Earth observation satellites from companies like Planet Labs, Umbra, and HawkEye 360; GPS; miniature CubeSats for education and research; and military/defense satellites.

Loading next visibility...
Identifier
62653, 2025-009AW
Orbit
SSO
Country
Flag of TRTR / TURK
Related business
Manufacturer
ITUTR/PAU
Mission
Operational Amateur Imaging
Bus & Motor
CUBESAT 16U, Unknown motor
Mass
~30 kg wet, ~30 kg dry
Launch date (UTC)
2025-01-14 (1 year ago)
Launch vehicle
FALCON 9
Launch site
Air Force Western Test Range (AFWTR)
Object type
Payload
Rocket body
Debris
Shape & HBR
Box + 2 Pan, 0.3 m
Radar Cross Section
0.124 m², Medium (>0.1 m² and < 1m²)

Expand to show TLE details & history
Last TLE update: 6 hours ago

TLE from 6 hours ago
0 PAUSAT-1
1 62653U 25009AW  26126.53419813  .00003873  00000-0  16641-3 0  9991
2 62653  97.3953 206.7844 0003163 102.1445 258.0146 15.23264439 72443
Epoch: 2026-05-06T12:49Z
TLE epoch observation values (Epoch: 2026-05-06T12:49:14.718Z)
Latitude
-0.00006°
Longitude
150.07977°
Altitude
499.549 km
Speed
7.614 km/s
True Right ascension
13h 47m 08s
True Declination
0° 00' 00"
Sunlit
Object was in full shadow at epoch
Visualization orbit readout
Latitude
Unknown
Longitude
Unknown
Altitude
Unknown
Speed
Unknown
Apparent Right ascension
Unknown
Apparent Declination
Unknown
Sunlit
N/A
Visualization observer readout
Local Sidereal Time
03:07:47
Azimuth
Unknown
Elevation
Unknown
Doppler factor
Unknown
Orbital elements
Apogee altitude
495.136 km
Perigee altitude
490.79 km
Semi-major axis
6,871.1 km
Eccentricity
0.00032
Inclination
97.3953°
RAAN
206.7844°
Arg. of periapsis
102.1445°
True anomaly
257.97915°
Mean anomaly
258.0146°
Eccentric anomaly
257.99687°
Mean motion
3.81069 °/min
Orbital period
94.47 mins
BSTAR
0.00016641
Loading maneuver chart data...
Computing Atmospheric mass density...
Loading historical data...
Loading historical data...
Loading historical data...
Loading historical data...
Loading historical data...
Loading historical data...
Loading historical data...

Documentation

Showing up to 5 results
|